www.pogodaiklimat.ru

Погода и климат >> Архив погоды >> Китай >> Гуандун >> Лиянпин


ПОГОДА в Лиянпине

  • Прогноз погоды в Лиянпине
  • Монитор погоды в Лиянпине

АРХИВ ПОГОДЫ в Лиянпине

Время (UTC), дата Ветер
(напр.,м/с)
 
Видим.   Явления Облачность Т
(С)
Тd
(С)
f
(%)
Тe
(С)
Тes
(С)
Комфортность P
(гПа)
Po
(гПа)
Тmin
(С)
Tmax
(С)
R
(мм)
R24
(мм)
S
(см)
18 17.06 СВ 1 10 км ?/? +25.3 +25.1 99 +36 +36 очень
душно
1008.2 983.8 +31.7 0.3
21 17.06 ЮВ 1 18 км слаб. дождь н/о +24.9 +24.7 99 +35 +35 очень
душно
1008.1 983.7
00 18.06 В 1 30 км ?/? +26.7 +25.2 91 +38 +38 очень
душно
1009.1 984.8 0.4
03 18.06 Ю 4 30 км слаб. дождь 9/9 600 м
[]
+27.2 +24.6 86 +39 +40 очень
душно
1009.4 985.1
06 18.06 ЮВ 1 30 км в посл. час дождь 10/10 600 м
[]
+28.7 +24.6 79 +41 +41 опасность
перегрева
1008.0 983.9 +24.8 1
09 18.06 С 2 30 км {дождь} 8/8 600 м
[]
+27.5 +25.8 90 +41 +42 опасность
перегрева
1007.2 983.0
12 18.06 С 1 25 км в посл. час дождь 9/9 1000 м
[]
+25.9 +25.7 99 +38 +38 очень
душно
1008.0 975.8 6
15 18.06 Ю 1 13 км н/о +25.0 +24.9 99 +35 +35 очень
душно
1009.2 984.7
18 18.06 С 1 6000 м дымка ?/? +24.6 +24.5 99 +34 +34 очень
душно
1008.2 983.7 +30.7
21 18.06 С 2 2000 м слаб. дождь н/о +24.3 +24.2 99 +33 +33 очень
душно
1008.6 984.1
00 19.06 С 1 7000 м слаб. дождь ?/? +26.7 +25.2 91 +38 +38 очень
душно
1009.5 985.2
03 19.06 Ю 5 30 км в посл. час дождь 8/8 600 м
[]
+30.0 +23.1 67 +40 +42 очень
душно
1008.6 984.6
06 19.06 СЗ 2 30 км в посл. час дождь 8/8 600 м
[]
+32.9 +24.3 61 +45 +49 опасность
перегрева
1006.7 982.9 +24.3 0.0
09 19.06 Ю 3 30 км н/о +30.3 +23.2 66 +41 +41 опасность
перегрева
1005.5 981.6
12 19.06 Ю 4 30 км в посл. час дождь 8/8 600 м
[]
+27.7 +25.1 86 +40 +40 очень
душно
1006.6 982.4 0.0
15 19.06 С 1 н/о дымка н/о +25.9 +25.3 96 +37 +37 очень
душно
1007.8 983.5
18 19.06 Ю 1 8000 м слаб. дождь ?/? +25.9 +25.3 96 +37 +37 очень
душно
1006.7 982.4 +33.4
21 19.06 З 2 н/о слаб. дождь н/о +25.5 +25.3 99 +37 +37 очень
душно
1006.9 982.5
00 20.06 Ю 2 8000 м 6/6 600 м
[]
+27.3 +24.7 86 +39 +41 очень
душно
1007.9 983.7 0.1
03 20.06 Ю 4 30 км {дождь} 8/8 1000 м
[]
+29.9 +24.0 71 +41 +44 опасность
перегрева
1007.5 983.5
06 20.06 Ю 5 24 км слаб. дождь 10/10 1000 м
[]
+29.4 +24.2 74 +41 +41 опасность
перегрева
1005.2 981.2 +25.2 0.0
09 20.06 Ю 4 30 км {дождь} 9/9 600 м
[]
+30.7 +24.3 69 +43 +43 опасность
перегрева
1004.1 980.2
12 20.06 Ю 2 30 км слаб. дождь 10/10 600 м
[]
+27.9 +24.9 84 +40 +40 очень
душно
1005.4 981.3 0.0
15 20.06 В 1 14 км н/о +25.6 +25.0 96 +36 +36 очень
душно
1005.8 981.5
18 20.06 С 1 23 км ?/? +25.5 +24.9 96 +36 +36 очень
душно
1005.5 981.2 +32.0
21 20.06 Ю 2 26 км слаб. дождь н/о +25.7 +25.1 96 +37 +37 очень
душно
1005.7 981.4
00 21.06 Ю 2 25 км слаб. дождь 10/10 1000 м
[]
+26.6 +25.1 91 +38 +38 очень
душно
1006.6 982.3
03 21.06 Ю 6 30 км {дождь} 9/9 1000 м
[]
+30.1 +25.3 76 +44 +45 опасность
перегрева
1006.0 982.0
06 21.06 З 2 30 км слаб. дождь 9/9 1000 м
[]
+31.2 +25.0 70 +45 +47 опасность
перегрева
1003.9 980.1 +24.9 0.2
09 21.06 Ю 5 30 км {дождь} 5/5 600 м
[]
+31.1 +24.9 70 +45 +46 опасность
перегрева
1002.9 979.1
12 21.06 Ю 3 30 км {дождь} 10/10 600 м
[]
+29.5 +25.4 79 +43 +43 опасность
перегрева
1003.7 979.7 0.0
15 21.06 Ю 3 28 км н/о +28.2 +26.0 88 +42 +42 опасность
перегрева
1004.9 980.8
18 21.06 Ю 3 30 км ?/? +27.6 +25.2 87 +40 +40 очень
душно
1003.9 979.8 +33.1
21 21.06 Ю 3 30 км н/о +27.2 +25.0 88 +39 +39 очень
душно
1004.2 980.0
00 22.06 Ю 5 30 км 9/9 600 м
[]
+27.4 +25.2 88 +40 +40 очень
душно
1004.7 980.5 0.0
03 22.06 Ю 3 30 км н/о +31.0 +26.0 75 +46 +46 опасность
перегрева
1003.9 980.0
06 22.06 Ю 7 30 км 5/5 600 м
[]
+33.5 +25.2 62 +48 +50 опасность
перегрева
1001.6 970.1 +26.7
09 22.06 Ю 5 30 км 8/8 600 м
[]
+32.2 +25.5 68 +47 +47 опасность
перегрева
1001.3 977.6
12 22.06 Ю 4 30 км 9/9 1000 м
[]
+30.0 +25.9 79 +45 +45 опасность
перегрева
1002.1 978.2
15 22.06 Ю 5 30 км н/о +28.9 +26.1 85 +44 +44 опасность
перегрева
1002.6 978.6
18 22.06 Ю 5 30 км ?/? +28.1 +25.7 87 +42 +42 опасность
перегрева
1001.5 977.5 +34.0
21 22.06 Ю 4 30 км н/о +27.4 +25.2 88 +40 +40 очень
душно
1002.3 978.2
00 23.06 В 2 7000 м слаб. дождь 10/10 600 м
[]
+22.9 +22.3 96 +31 +31 очень
душно
1005.7 981.2 13
03 23.06 Ю 1 30 км {дождь} 10/10 600 м
[]
+26.2 +23.4 85 +36 +36 очень
душно
1005.1 980.8
06 23.06 Ю 1 30 км {дождь} 10/10 600 м
[]
+29.6 +24.9 76 +42 +42 опасность
перегрева
1004.1 980.1 +22.9 0.2
09 23.06 Ю 2 30 км 10/10 1000 м
[]
+30.0 +26.1 80 +45 +45 опасность
перегрева
1003.4 979.5
12 23.06 С 1 9000 м дождь 10/10 600 м
[]
+22.8 +22.6 99 +31 +31 очень
душно
1006.4 973.9 10
15 23.06 Ю 2 30 км в посл. час дождь н/о +22.8 +22.7 99 +31 +31 очень
душно
1006.6 982.0
18 23.06 З 1 11 км ?/? +22.8 +22.7 99 +31 +31 очень
душно
1006.2 981.6 +30.7 0.8
21 23.06 З 1 19 км н/о +22.9 +22.8 99 +31 +31 очень
душно
1005.9 981.4
00 24.06 С 1 3200 м дождь ?/? +23.5 +23.4 99 +32 +32 очень
душно
1006.6 982.1 2
03 24.06 СЗ 1 6000 м слаб. дождь н/о +24.7 +24.5 99 +35 +35 очень
душно
1006.9 982.5
06 24.06 ЮВ 4 30 км {дождь} 10/10 600 м
[]
+25.7 +24.4 93 +36 +36 очень
душно
1006.2 981.9 +22.6 4
09 24.06 Ю 5 26 км слаб. дождь 10/10 600 м
[]
+25.0 +24.4 96 +35 +35 очень
душно
1005.8 981.4
12 24.06 Ю 4 3400 м сильн. дождь ?/? +22.7 +22.6 99 +31 +31 очень
душно
1007.5 982.9 9
15 24.06 С 1 20 км в посл. час дождь ?/? +21.9 +21.8 99 +29 +29 очень
душно
1008.5 983.8

 

Местоположение метеостанции Лиянпин (Гуандун, Китай): широта 24.37 долгота 114.48 высота над уровнем моря 214 м.

В архиве по умолчанию представлена погода в Лиянпине за последнюю неделю. Архивные данные за месяц целиком и за предыдущие месяцы, начиная с января 2011 года, Вы можете получить, выбрав интересующий диапазон дат из раскрывающегося списка и нажав кнопку "Ввод!".


*Определитесь, кто Вы:
робот инопланетянин человек

Внимание! Время в таблицах - всемирное. Для получения местного времени необходимо прибавить поправку, которая равна 8 ч.

Смотрите также архив погоды в соседних городах и на ближайших метеорологических станциях:

Погода в Хэюане (Гуандун, Китай) (68 км)
Погода в Шаогуане (Гуандун, Китай) (103 км)
Погода в Фоанге (Гуандун, Китай) (111 км)
Погода в Сюньву (Цзяньси, Китай) (135 км)
Погода в Мэйсяне (Гуандун, Китай) (165 км)
Погода в Ганьчжоу (Цзяньси, Китай) (175 км)
Погода в Гуанчжоу (Гуандун, Китай) (178 км)
Погода в Шаньвэе (Гуандун, Китай) (198 км)
Погода в Шэньчжэне (Гуандун, Китай) (206 км)
Погода Ta Kwu Ling (Гонконг) (207 км)

Пояснения к столбцам:

Ветер - указаны скорость ветра в м/с - средняя за 10 мин, порывы в срок и между сроками (в фигурных скобках) и направление, откуда дует ветер: С - северный, СВ - северо-восточный, В - восточный, ЮВ - юго-восточный, Ю - южный, ЮЗ - юго-западный, З - западный, СЗ - северо-западный.
Видимость - горизонтальная дальность видимости в метрах или километрах. При видимости от 1 до 10 км при отсутствии осадков обычно наблюдается дымка, при ухудшении видимости до 1 км и менее - туман. В сухую погоду видимость может ухудшаться дымом, пылью или мглою.
Явления - указаны атмосферные явления, наблюдавшиеся в срок или в последний час перед сроком; фигурными скобками обозначены явления, наблюдавшиеся между сроками (за 1-3 часа до срока); квадратными скобками обозначены град или гололедные отложения с указанием их диаметра в мм.
Облачность - указаны через наклонную черту общая и нижняя облачность в баллах и высота нижней границы облаков в метрах; квадратными скобками обозначены формы облаков: Ci - перистые, Cs - перисто-слоистые, Cc - перисто-кучевые, Ac - высококучевые, As - высокослоистые, Sc - слоисто-кучевые, Ns - слоисто-дождевые, Cu - кучевые, Cb - кучево-дождевые. Подробнее классификацию облаков см. в Атласе облаков (PDF).
T - Температура воздуха - температура, измеренная на высоте 2 м над землей.
Td - Температура точки росы - температура, при понижении до которой содержащийся в воздухе водяной пар достигнет насыщения.
f - Относительная влажность воздуха - влажноcть воздуха, измеренная на высоте 2 м над землей.
Te - Эффективная температура - температура, которую ощущает одетый по сезону человек в тени. Характеристика душности погоды. При расчете учитывается влияние влажности воздуха и скорости ветра на теплоощущения человека.
Tes - Эффективная температура на солнце - температура, которую ощущает человек, с поправкой на солнечный нагрев. Характеристика знойности погоды. Зависит от высоты солнца над горизонтом, облачности и скорости ветра. Ночью, в пасмурную погоду, а также при ветре 12 м/с и более поправка равна нулю.
P - Атмосферное давление - приведенное к уровню моря атмосферное давление.
Po - Атмосферное давление - измеренное на уровне метеостанции атмосферное давление.
Tmin - Минимальная температура - минимум температуры воздуха на высоте 2 м над землей.
Tmax - Максимальная температура - максимум температуры воздуха на высоте 2 м над землей.
R - Количество осадков - Количество выпавших осадков за период времени, мм. При наведении курсора мыши на число - период времени, за который выпало указанное количество осадков.
R24 - Количество осадков - Количество выпавших осадков за 24 часа, мм.
S - Снежный покров - Высота снежного покрова, см. При наведении курсора мыши на число - состояние снежного покрова и степень покрытия местности в баллах.